Wind_Speed
12 13 13 14 14 16 19 21 22 23 23 21 20 18 17 16 15 15 14 14 14 13 13 12 11 11 10 8 8 7 7 6 6 6 6 6 5 4 4 3 2 1 0 0 1 1 2 2 2 1 1 2 2 3 4 4 5 5 6 6 6 5 5 5 4 4 4 4 4 4 4 4 3 3 4 3 3 2 2 2 2 2 2 2 3 3
12 13 13 13 14 16 18 20 22 23 23 21 20 18 17 16 16 15 15 14 13 13 13 12 12 11 10 9 8 7 7 7 7 7 7 6 5 4 3 3 2 1 1 1 2 2 3 3 3 3 3 3 3 3 4 4 5 6 6 7 7 6 6 5 5 5 5 5 4 4 4 4 4 3 3 3 3 2 2 2 1 2 2 2 2 2
12 12 13 13 15 17 18 20 21 21 22 21 20 18 17 17 16 15 15 14 14 13 13 13 13 12 11 10 9 8 8 8 8 8 7 7 5 4 4 3 2 2 1 2 2 3 4 4 3 3 3 3 3 3 4 4 5 6 7 7 8 8 7 7 7 6 6 6 6 6 5 5 4 4 3 3 2 2 1 1 1 1 1 2 2 2
13 14 15 15 16 17 18 20 21 21 21 20 19 18 17 16 16 15 14 14 14 13 13 14 13 13 12 11 10 9 9 9 9 9 7 7 6 5 4 3 2 1 1 2 3 4 4 4 3 3 2 2 2 3 3 3 4 5 6 7 8 8 8 8 8 8 8 7 7 6 6 5 5 4 3 3 2 2 1 1 1 1 1 1 2 2
13 15 16 16 17 18 19 20 20 20 20 19 18 17 17 16 15 15 14 14 13 13 13 14 14 14 13 12 11 10 10 10 10 9 8 7 6 5 4 3 1 1 2 3 3 4 4 3 3 2 2 2 2 2 3 3 3 3 4 5 6 7 8 8 8 8 8 7 7 6 6 6 5 4 4 4 3 2 1 1 0 0 1 1 1 2
13 14 15 17 17 18 20 20 20 20 19 18 17 16 16 15 14 14 14 13 12 12 12 13 14 14 14 13 12 11 10 11 10 10 9 8 6 5 4 2 0 2 3 3 3 3 3 3 2 2 1 1 1 2 2 3 3 2 2 2 3 4 6 6 7 7 7 7 6 6 6 6 5 5 5 4 4 3 2 1 1 0 1 1 1 1
12 14 15 17 17 18 20 20 20 20 19 18 17 16 15 14 13 13 12 12 12 11 12 13 14 15 16 15 14 13 12 12 12 11 10 8 7 5 3 1 1 2 3 3 3 3 3 3 2 2 1 1 1 1 2 2 2 2 1 1 2 3 3 4 5 5 5 5 5 6 5 5 5 5 5 5 5 4 3 2 1 1 1 1 1 1
13 15 17 18 19 19 20 21 21 20 20 19 18 16 15 14 13 12 12 12 11 12 13 14 15 16 17 17 17 16 16 15 14 13 12 10 8 5 3 2 2 3 3 3 2 2 2 2 2 1 1 1 1 2 2 2 2 2 2 3 4 4 4 4 4 4 4 5 5 5 5 5 5 5 5 5 5 4 4 3 2 1 1 1 1 2
15 16 17 19 19 18 18 19 21 21 21 20 18 17 17 16 15 14 13 13 13 14 15 16 17 18 19 19 19 18 17 16 15 14 13 11 8 6 4 3 3 3 3 3 2 2 2 2 1 1 0 1 2 2 2 2 1 2 3 4 5 5 4 4 4 4 4 4 4 5 5 5 5 4 4 4 4 4 4 4 3 2 2 2 2 3
16 16 17 18 19 19 17 18 20 22 21 20 19 19 18 18 17 16 15 15 15 15 16 17 18 19 20 20 19 18 17 16 15 14 12 10 8 6 5 5 5 4 4 4 3 3 2 2 1 1 1 1 2 3 3 2 1 2 3 4 4 4 4 4 4 4 4 4 4 4 4 4 4 4 4 3 3 3 3 3 3 3 3 3 3 3
15 15 16 17 19 19 18 19 21 22 21 20 19 19 19 18 18 16 15 15 16 17 17 18 19 20 20 20 19 18 17 15 14 13 11 9 8 7 6 6 6 5 5 5 5 5 4 3 3 2 3 3 3 3 3 1 1 2 3 3 3 4 4 4 4 4 4 4 4 4 3 3 3 3 3 3 2 2 2 2 3 4 4 4 4 3
14 15 15 16 18 19 19 20 22 23 22 20 17 16 17 19 20 17 14 15 16 18 19 19 20 20 21 20 19 18 16 15 13 12 10 9 8 8 7 7 7 6 6 6 6 6 5 5 4 4 4 4 3 3 2 0 1 3 3 3 2 2 3 3 4 4 4 4 4 4 4 4 4 3 3 3 3 2 2 2 3 4 5 5 5 4
14 15 15 16 17 18 18 19 20 21 21 19 16 14 15 20 21 20 16 15 17 19 20 20 20 20 20 20 19 18 16 14 13 12 11 10 9 8 8 8 7 7 7 7 6 6 5 5 5 4 3 3 3 2 1 1 2 3 3 2 1 1 2 3 4 4 4 4 4 5 5 5 4 4 4 3 3 3 3 3 3 4 5 6 5 4
14 14 14 13 14 16 17 19 19 19 18 18 18 18 20 22 23 21 18 17 19 21 21 20 19 19 19 18 18 17 16 15 14 13 11 10 10 9 8 8 8 8 8 7 7 6 5 4 3 3 2 2 1 1 1 2 2 2 2 2 1 0 1 2 3 4 5 5 5 5 5 5 4 4 4 4 4 4 3 3 3 4 5 6 6 5
14 13 12 11 12 14 16 18 19 18 19 19 21 22 22 22 22 21 18 18 19 21 20 19 18 18 17 17 17 17 16 15 14 13 12 11 10 10 9 9 9 9 8 7 6 5 4 3 2 2 1 1 2 2 2 2 2 2 2 1 1 1 1 1 2 4 5 5 5 6 6 5 5 4 4 4 3 3 3 3 3 3 4 6 6 6
15 14 12 12 13 15 17 19 18 18 19 21 22 22 20 20 21 20 18 18 20 21 19 16 14 14 15 17 17 17 16 15 14 13 12 11 10 10 9 9 9 8 8 7 6 5 4 3 2 1 2 2 2 3 3 2 2 1 1 1 2 2 1 1 2 3 4 5 5 6 6 6 5 5 4 3 3 3 3 3 3 3 3 5 6 6
16 15 14 13 13 15 18 20 19 19 20 21 22 22 21 20 21 20 18 20 21 21 18 15 11 8 9 13 16 17 17 15 14 13 13 12 11 10 9 9 8 8 7 6 5 4 3 2 2 2 2 2 3 3 3 2 2 1 2 2 2 2 2 1 3 4 4 4 4 5 5 6 6 5 5 4 3 3 2 2 2 2 2 3 5 6
15 15 15 14 13 15 18 19 20 20 21 22 22 22 21 21 21 21 21 22 21 20 17 16 13 9 8 7 11 16 18 16 15 14 13 12 11 11 10 9 8 7 7 6 5 4 3 3 2 2 2 3 3 3 3 2 2 2 2 3 3 3 2 2 4 6 5 4 3 3 4 5 5 5 5 5 4 3 2 2 2 2 2 2 3 4
16 16 16 15 14 15 17 19 21 22 21 21 22 21 20 20 21 22 23 22 21 20 18 17 15 13 10 6 9 15 17 16 15 14 13 12 11 10 10 8 7 7 6 6 5 4 3 3 3 3 3 3 3 3 3 2 2 2 3 3 3 3 2 3 6 7 5 4 3 3 4 4 4 5 5 5 4 4 3 2 2 1 1 1 2 2
17 18 18 17 16 16 17 19 22 23 22 22 21 21 20 20 21 21 22 22 22 22 21 19 17 15 11 8 8 10 13 13 13 13 13 12 11 10 9 8 7 6 6 6 5 4 3 3 3 3 3 3 4 4 3 3 3 3 3 3 2 2 2 5 6 6 5 4 4 4 4 4 4 4 5 5 5 5 4 3 2 2 1 1 1 2
17 18 19 19 17 16 16 18 21 23 23 23 22 21 20 20 20 21 22 23 23 22 21 19 17 16 12 10 8 7 9 10 11 12 12 12 11 10 9 8 7 7 6 6 5 4 3 3 3 3 3 4 5 4 3 3 3 3 2 1 1 3 4 6 6 5 4 4 4 4 4 4 5 5 5 5 6 6 5 4 2 1 1 2 2 2
15 16 16 16 16 16 16 16 18 19 21 22 22 21 20 20 20 21 23 23 23 22 21 19 17 16 13 11 9 8 8 8 9 10 10 10 10 10 9 8 7 7 7 6 5 4 3 3 3 3 4 5 5 5 4 3 2 2 1 1 3 4 5 6 6 5 4 3 3 4 4 4 4 4 5 5 6 6 6 4 3 2 2 2 2 2
10 10 11 12 14 14 14 13 14 15 18 21 21 20 20 20 20 21 22 23 23 23 22 20 18 16 13 11 10 9 8 8 8 8 8 8 9 9 9 8 8 8 7 6 5 4 3 3 3 3 4 5 5 5 4 4 3 3 2 2 2 3 4 4 5 4 4 3 3 3 3 3 3 3 3 4 4 5 5 5 4 3 3 2 2 2
7 6 7 9 10 11 11 10 11 12 15 18 19 19 19 18 18 19 20 21 22 22 21 20 17 14 12 11 10 10 10 9 9 9 9 8 8 8 9 9 9 9 8 7 5 4 3 3 3 4 5 6 5 4 4 4 4 4 3 3 2 2 2 3 3 3 4 4 3 3 3 3 3 3 3 3 3 4 4 5 5 4 4 3 3 3
6 7 7 8 8 8 8 8 8 10 12 15 17 18 18 17 17 17 17 19 20 20 19 17 14 11 10 10 11 11 11 10 10 9 10 7 7 8 9 9 10 10 9 7 5 4 3 3 4 6 7 7 7 5 4 5 5 4 4 3 3 2 2 2 2 2 3 3 3 3 3 3 3 3 4 3 3 4 4 4 5 5 4 3 4 4
7 8 9 10 9 8 8 7 7 8 10 13 15 17 17 17 17 17 18 19 20 19 18 14 12 11 11 11 12 12 12 12 10 10 10 8 7 7 8 9 10 10 10 8 6 4 3 4 6 8 10 10 9 8 7 6 6 5 5 4 3 3 3 2 2 2 2 2 3 3 3 3 3 3 3 3 3 3 3 4 4 4 4 4 5 6
7 9 10 11 10 10 9 8 8 8 9 11 13 15 16 16 17 17 17 19 19 19 17 13 10 10 11 10 11 13 13 13 11 11 10 9 7 7 9 10 11 11 10 8 6 5 4 5 8 10 12 12 11 11 10 9 8 7 6 5 4 4 4 3 3 3 3 3 3 3 3 2 2 2 2 2 2 2 2 3 3 3 4 5 6 7
8 9 10 10 10 10 10 10 10 10 10 11 12 13 14 15 17 17 18 18 18 18 17 14 11 9 9 10 11 12 13 13 12 11 10 9 7 6 9 10 11 11 10 8 6 5 5 6 9 12 13 13 12 11 10 9 9 8 7 5 4 4 4 4 4 4 4 5 5 4 4 4 3 3 3 2 2 2 2 2 3 3 5 6 7 8
9 10 11 11 10 10 10 10 10 10 11 11 12 12 12 13 14 16 17 17 17 17 17 16 13 10 8 9 10 11 12 13 13 12 11 10 8 7 9 11 12 12 11 8 6 5 6 7 10 12 14 15 14 12 10 9 8 7 6 5 4 3 3 3 4 5 6 6 6 6 6 5 5 5 4 4 3 3 3 3 3 4 6 7 8 8
10 11 12 12 12 12 12 12 12 12 12 13 12 12 11 10 11 11 12 14 16 17 17 17 15 12 8 7 6 7 10 13 14 13 13 12 10 9 10 11 12 12 10 7 4 3 5 7 10 13 14 15 15 14 12 11 10 9 8 7 7 6 6 6 6 6 6 7 7 7 7 7 6 6 6 5 5 5 5 4 4 5 6 7 8 8
11 11 12 13 13 13 14 14 14 14 14 14 14 13 12 10 9 9 9 11 13 14 15 15 15 14 11 7 4 2 5 10 13 14 14 14 12 10 11 12 12 12 11 8 5 2 2 5 9 13 14 15 15 15 14 13 12 11 10 10 9 9 9 8 7 7 7 8 8 9 8 8 8 7 7 7 6 6 5 4 4 5 7 7 7 7
11 11 12 13 14 14 15 16 16 15 15 14 14 13 12 11 10 9 9 9 10 10 11 12 13 13 13 9 6 4 3 6 10 13 14 14 12 11 11 12 12 12 12 10 6 2 1 2 6 11 13 14 14 14 14 13 12 12 11 11 11 11 10 9 8 7 7 7 8 9 9 9 8 8 8 7 7 6 6 5 4 5 7 7 7 7
11 12 13 13 14 15 15 15 15 15 14 14 13 13 12 11 11 10 9 9 9 9 9 10 11 12 12 12 10 7 4 4 8 12 14 13 11 10 11 12 12 12 12 11 9 5 2 2 4 7 10 12 13 13 12 12 11 11 11 11 11 11 10 9 8 7 7 7 8 8 9 9 9 8 8 8 7 7 7 6 5 5 6 7 7 7
13 13 14 14 15 15 14 14 14 13 13 12 12 11 11 10 10 9 9 9 8 8 8 9 9 10 11 12 11 9 6 5 6 10 13 14 11 9 12 13 13 13 12 11 10 7 4 3 3 4 6 9 11 10 10 10 10 10 10 10 10 10 9 8 7 6 6 7 7 8 8 8 8 8 8 8 8 8 8 7 6 5 6 7 7 7
14 14 15 15 15 15 14 13 13 12 11 10 10 9 9 9 8 8 8 8 7 8 8 8 8 8 8 10 10 9 7 6 7 9 12 15 13 10 11 12 13 12 12 11 9 7 5 5 5 4 4 6 8 9 10 9 9 9 9 9 9 8 8 7 6 6 6 6 7 7 7 8 8 8 8 8 8 9 9 9 8 7 7 6 6 7
15 15 15 14 14 14 13 12 12 11 10 9 8 8 7 7 7 6 6 6 6 6 7 7 7 7 8 8 9 8 8 7 7 8 10 13 13 11 9 10 11 12 11 11 9 7 6 6 6 6 5 5 5 7 9 9 9 8 8 8 7 7 7 6 6 6 6 6 7 7 7 7 7 7 7 8 8 9 9 10 10 9 9 8 8 7
14 14 13 13 13 12 12 11 11 10 9 8 7 7 6 6 5 5 5 5 5 5 6 6 6 6 7 7 8 9 9 8 8 8 10 11 12 11 9 8 9 10 10 10 10 9 7 6 6 7 6 6 5 5 6 8 9 8 8 7 6 6 6 7 7 7 6 7 7 7 7 7 7 7 7 8 8 8 9 9 10 10 10 10 10 9
13 13 12 12 12 12 11 11 11 10 9 8 7 7 6 6 5 5 5 5 5 5 5 5 5 5 6 6 7 8 8 8 8 8 9 10 11 12 11 9 8 9 9 9 9 8 8 7 6 5 5 6 7 6 6 7 8 8 8 7 7 7 7 8 8 7 7 7 7 7 7 7 8 8 8 8 8 8 8 9 9 10 10 11 11 11
13 13 13 13 13 13 12 12 11 10 9 9 8 7 7 6 6 5 5 5 5 5 5 4 4 4 5 5 6 7 8 8 8 9 9 10 11 11 11 9 8 8 8 9 8 8 8 8 7 5 4 4 5 7 7 7 7 8 8 8 8 8 9 9 8 8 8 7 7 8 8 8 8 8 8 8 8 8 8 9 9 9 10 10 11 11
13 14 14 14 14 13 13 12 12 11 10 9 9 8 7 7 6 6 6 6 6 6 5 5 4 4 4 5 6 7 7 8 9 9 10 10 10 10 10 9 9 8 8 9 9 9 9 9 9 8 7 5 4 5 7 8 8 8 8 8 9 9 9 9 9 9 8 8 8 9 9 9 9 9 9 9 9 9 9 9 9 9 9 9 10 10
13 14 14 14 14 13 13 13 12 11 11 10 9 9 8 7 7 7 7 8 8 7 7 6 5 5 5 5 6 6 7 8 9 9 10 10 10 10 10 10 9 9 9 9 9 10 10 10 10 10 10 9 8 8 9 10 10 10 10 10 10 9 9 9 10 10 10 9 9 9 10 10 10 10 10 10 10 10 9 9 9 9 9 9 9 9
13 13 13 13 13 13 12 12 12 12 11 11 10 9 8 7 7 7 8 8 9 9 8 7 7 6 6 6 6 7 7 8 8 9 10 10 10 10 10 10 10 10 10 10 10 10 10 10 11 11 11 11 11 11 12 12 12 12 12 12 11 11 9 9 10 10 10 10 10 10 10 11 11 12 12 12 11 11 10 10 10 10 10 10 10 9
12 12 12 12 12 12 12 12 12 12 11 11 10 9 8 7 7 8 8 9 9 9 9 8 8 7 7 7 7 7 7 8 8 9 9 10 10 10 10 10 10 10 10 10 10 11 11 11 12 12 11 11 11 12 12 13 13 13 13 13 11 9 6 6 8 9 10 10 11 11 11 12 12 13 13 13 12 12 11 11 11 11 11 11 11 10
11 11 12 12 12 12 12 12 12 12 11 11 10 9 8 8 8 8 8 9 9 10 10 9 8 8 8 8 8 8 8 8 8 8 9 9 9 9 9 9 10 10 10 10 11 11 12 12 12 12 11 11 12 12 13 12 13 13 13 13 12 10 8 7 7 8 8 10 11 11 12 12 13 13 14 14 13 13 12 12 12 12 12 12 12 12
12 12 12 13 13 13 13 13 12 12 11 11 10 9 8 8 8 9 9 9 10 10 10 10 10 10 10 9 9 9 8 8 8 8 8 9 9 9 9 9 10 10 10 11 11 11 12 12 12 12 11 11 12 13 13 12 12 12 13 13 12 11 11 10 9 8 8 9 10 11 12 13 13 14 14 14 14 14 14 14 13 13 13 13 13 13
12 13 13 13 13 13 13 13 12 12 11 11 10 9 9 9 9 9 10 10 10 11 11 11 11 11 11 11 10 10 9 9 9 8 8 8 9 9 9 9 10 10 10 11 11 11 11 12 12 12 11 12 13 14 14 13 12 12 12 13 12 12 11 10 9 8 8 9 11 12 13 13 14 15 15 15 15 15 15 15 15 14 14 14 14 14
13 13 13 13 13 13 13 13 12 12 12 11 10 10 10 9 10 10 10 11 11 11 12 11 11 11 11 10 10 10 9 9 9 9 9 9 9 9 9 9 10 10 10 10 10 11 11 11 11 11 12 11 11 11 13 13 13 13 13 13 13 12 12 11 9 8 8 9 11 12 13 14 15 16 16 17 17 16 16 16 15 15 15 15 15 15
12 13 13 13 13 13 13 13 13 13 12 12 11 11 11 11 11 11 11 11 11 12 12 12 12 11 11 10 10 9 9 9 8 8 8 8 9 9 9 9 9 10 10 10 10 11 11 11 11 12 12 12 11 11 11 12 13 13 14 13 13 13 12 12 11 9 9 9 10 12 13 14 15 15 16 16 17 17 17 17 16 16 16 16 16 16
11 12 12 13 13 13 13 13 13 13 12 12 12 12 12 12 12 12 12 12 12 12 12 12 12 12 11 11 10 10 9 9 8 8 8 8 8 9 9 9 9 9 10 11 11 11 12 12 13 14 14 15 15 14 13 13 14 14 14 14 14 14 14 13 12 11 10 9 10 11 12 14 15 15 15 14 15 16 17 17 16 15 15 16 16 16
11 11 11 12 12 13 13 13 13 13 12 12 12 12 12 12 12 12 12 12 12 12 12 12 12 12 12 11 11 10 10 10 9 9 9 9 9 9 9 9 9 10 10 10 10 10 11 12 14 15 16 16 16 16 16 15 14 14 14 14 14 14 14 14 13 12 10 9 9 9 11 12 13 14 14 14 14 15 16 16 16 15 14 15 15 15
11 11 11 12 12 12 12 12 12 12 12 12 12 12 12 13 12 12 12 12 12 12 12 12 12 12 11 11 11 10 10 10 10 10 10 10 10 10 10 10 10 9 8 7 6 6 6 7 9 11 14 15 15 15 15 15 14 13 13 14 14 13 13 13 12 11 9 8 8 8 9 10 11 12 13 13 13 13 13 14 14 14 13 13 14 14
Wind_Direction
223 226 228 228 220 210 207 209 209 208 208 208 206 205 206 208 209 211 211 210 208 207 205 204 203 199 192 186 186 189 188 184 174 160 149 146 151 158 157 154 150 151 153 3 1 3 0 355 346 328 295 259 235 221 212 203 193 184 174 167 159 151 143 140 141 142 140 139 140 140 144 152 161 172 180 175 168 158 140 109 90 82 78 81 80 73
217 217 215 214 209 204 202 206 208 208 208 208 207 207 207 209 210 211 211 210 209 207 204 203 204 202 196 188 186 188 186 180 172 161 151 151 154 154 147 138 126 107 65 27 10 1 355 349 342 334 319 298 277 258 244 231 219 208 197 190 183 178 174 170 169 168 165 166 160 154 157 167 171 169 165 161 159 156 148 131 106 85 73 71 64 54
204 202 200 201 200 199 199 201 204 208 210 210 211 211 210 211 212 213 212 211 210 208 204 202 201 201 197 188 183 182 182 179 172 165 158 156 155 151 141 130 118 98 53 18 4 356 349 346 343 339 329 314 297 281 266 251 238 226 216 207 201 196 192 189 187 186 185 185 182 179 180 182 181 176 166 160 156 153 156 151 124 88 67 60 52 42
195 192 193 193 194 196 199 199 201 205 209 211 213 214 214 214 214 215 215 213 211 209 205 201 199 197 194 188 183 181 181 179 174 169 164 157 153 149 143 134 122 90 20 356 349 345 344 343 344 344 338 325 309 297 285 272 258 244 231 221 214 209 206 204 203 202 201 201 200 198 197 197 195 190 186 180 175 169 167 164 135 78 52 53 41 30
194 193 193 190 190 194 199 201 202 203 205 208 211 213 215 215 215 215 215 214 212 208 203 200 196 193 190 186 183 182 181 179 176 172 167 161 159 157 151 147 137 10 347 342 340 338 340 342 346 348 345 330 314 305 298 291 283 272 252 234 222 217 214 213 213 213 213 213 213 213 211 210 208 206 204 200 195 193 189 189 163 76 40 41 36 31
192 193 194 190 189 192 198 200 201 201 201 203 207 210 212 213 213 212 210 209 207 203 196 193 190 187 184 181 180 180 180 177 172 168 166 166 166 165 162 164 233 333 339 340 338 339 341 344 350 353 348 332 321 315 312 312 313 311 292 246 218 211 211 211 212 213 214 214 215 215 215 215 215 214 212 210 206 202 198 190 164 103 46 38 38 40
187 190 190 189 192 195 196 197 199 199 198 197 200 203 205 206 206 204 202 201 198 190 183 182 181 180 179 178 176 173 170 166 163 163 166 168 168 170 175 191 310 334 339 338 337 336 340 345 351 355 351 332 325 324 328 336 348 5 37 98 141 161 175 187 194 198 200 201 203 205 207 208 210 211 212 211 209 205 199 190 171 125 76 55 55 60
180 185 188 189 191 194 194 195 197 199 199 197 194 193 192 193 193 192 192 191 186 180 175 174 174 176 178 178 176 172 168 165 165 169 175 178 181 186 200 245 302 323 331 332 331 332 333 338 346 354 348 322 305 311 328 348 14 57 91 107 115 122 133 146 162 174 181 185 188 192 195 197 200 204 208 210 209 206 201 191 174 141 98 74 77 83
180 182 187 191 191 188 186 190 195 199 201 200 195 189 184 182 182 182 182 180 178 176 174 174 175 177 179 180 180 177 174 173 176 181 187 193 200 211 231 263 290 307 317 320 323 323 324 328 333 337 325 294 294 303 325 351 33 95 115 120 120 122 123 129 139 150 160 168 175 181 185 187 190 194 199 206 210 211 208 198 182 155 120 95 90 90
187 184 184 189 192 190 184 186 192 197 200 200 199 195 189 181 177 175 175 176 177 176 176 177 177 178 179 182 183 183 181 183 186 191 197 204 214 227 245 262 279 293 303 307 307 306 308 305 293 254 232 260 280 298 322 350 47 115 129 131 131 130 130 131 134 139 145 153 161 169 176 181 183 186 189 197 206 214 215 205 188 166 137 117 104 98
185 185 182 185 190 193 190 189 191 193 195 196 197 198 196 189 181 174 172 175 177 177 178 180 181 180 179 181 184 188 189 191 194 200 207 215 225 237 249 259 271 285 295 299 301 299 296 288 274 257 247 250 266 287 315 347 82 125 131 135 139 140 140 141 140 137 138 142 145 150 157 163 168 171 173 175 180 187 195 190 178 163 146 133 121 110
179 182 182 184 186 189 191 192 192 191 190 188 188 191 193 194 190 183 176 175 175 176 178 180 183 183 183 183 186 190 194 197 201 207 215 224 234 243 252 260 270 281 292 297 298 297 294 288 281 274 265 255 262 278 304 354 120 130 131 133 138 147 153 153 149 143 139 138 138 137 136 137 138 141 146 148 147 146 148 153 156 155 149 141 132 123
180 181 182 184 185 186 187 187 185 185 186 186 187 189 192 194 194 191 184 179 177 178 179 180 182 184 187 189 192 195 198 203 209 216 223 232 240 248 255 263 273 283 292 296 297 295 292 287 284 280 272 257 256 264 269 142 134 132 129 127 129 152 172 170 163 156 150 146 143 138 134 129 124 124 131 137 139 140 139 141 146 152 153 148 142 135
177 178 179 182 185 188 188 185 182 182 188 192 195 196 195 194 193 191 187 182 180 181 180 180 181 184 188 192 197 201 205 210 216 223 230 237 244 251 258 268 277 286 293 297 296 293 289 285 280 272 261 242 230 210 153 138 132 129 124 124 135 234 236 194 178 169 162 157 152 147 142 134 126 124 129 138 143 144 144 146 148 155 160 158 154 148
176 176 178 184 189 191 191 190 189 190 194 197 199 200 199 194 191 189 185 180 179 180 180 180 182 185 189 194 200 206 211 216 221 227 233 239 246 252 260 270 279 286 292 295 293 289 286 280 269 249 223 194 176 159 141 130 123 121 131 156 209 250 262 220 184 174 170 165 161 157 154 148 140 134 132 136 144 152 156 157 158 162 168 169 166 161
185 183 184 190 194 196 197 195 195 196 198 199 200 200 196 190 188 188 186 181 179 178 177 176 178 185 193 200 204 208 213 218 224 229 234 240 247 254 261 270 278 285 288 290 288 283 279 268 246 216 192 180 171 160 144 131 124 132 167 207 232 251 266 227 166 163 164 166 167 166 164 161 156 149 143 139 141 151 161 164 163 165 172 176 175 173
191 191 193 195 197 200 201 199 198 198 200 200 200 199 196 192 189 188 186 182 179 177 177 177 176 180 194 204 208 211 214 218 223 229 235 240 247 254 261 268 275 280 282 283 280 275 265 247 222 202 192 188 183 169 149 134 135 165 199 218 238 256 266 193 145 139 140 150 161 168 171 172 169 166 161 154 147 147 155 162 163 163 168 178 182 183
195 197 198 199 200 200 200 198 199 200 201 200 199 200 200 198 195 191 189 185 181 178 180 182 182 177 174 187 206 212 214 217 222 228 234 239 245 253 259 264 268 271 273 272 269 262 250 233 216 206 201 202 193 173 147 134 148 192 216 233 249 261 257 172 143 134 127 128 142 159 170 175 178 177 174 169 162 154 152 158 165 169 173 178 184 187
201 202 202 202 202 202 200 199 200 201 201 199 198 196 196 197 197 195 193 190 186 183 184 185 186 183 177 177 200 210 213 215 220 225 231 236 241 247 254 257 259 260 261 259 256 251 240 228 218 213 211 207 192 171 146 145 174 208 230 248 261 264 235 169 149 137 127 127 134 144 154 163 172 177 180 178 173 166 159 157 165 172 180 180 178 180
208 209 209 208 206 204 203 205 207 206 204 203 200 195 191 193 193 193 193 192 191 190 189 188 188 189 189 191 199 206 208 211 215 220 227 232 236 241 247 248 247 247 248 246 244 241 233 226 221 218 213 202 185 167 148 160 192 219 240 256 263 239 177 156 146 138 132 138 145 150 154 158 163 170 176 178 175 171 165 158 159 172 190 187 180 174
217 219 221 220 214 208 208 213 215 214 211 207 201 195 191 190 190 191 194 195 194 193 192 191 191 192 195 199 199 198 200 202 206 213 222 228 232 235 239 238 237 235 234 234 233 232 227 224 223 219 212 198 182 166 151 178 207 225 239 227 145 140 141 142 140 138 141 151 159 164 168 171 174 178 182 182 180 178 173 165 159 168 193 199 197 191
229 231 232 230 225 220 220 223 223 220 216 210 202 194 191 190 190 192 196 196 194 193 193 194 195 197 200 202 200 197 195 195 199 206 216 220 226 230 231 230 227 225 224 224 225 225 224 226 225 218 206 193 178 164 157 178 194 196 153 108 114 126 135 139 141 145 152 161 168 173 178 184 187 191 194 193 191 188 185 179 174 174 181 187 194 202
237 239 236 231 228 228 230 232 229 222 217 212 206 202 200 199 197 197 197 197 196 196 196 197 198 199 201 203 202 200 199 196 198 205 212 209 216 224 226 222 219 217 218 218 218 222 226 229 221 204 187 176 165 157 159 170 170 160 152 136 130 134 141 147 152 156 160 164 170 176 183 188 191 195 200 202 201 199 197 194 191 187 187 189 195 204
219 221 218 217 217 220 224 229 227 221 215 212 210 208 208 207 205 204 201 200 199 199 198 197 196 195 197 200 200 200 203 204 206 208 211 212 216 221 222 217 212 211 213 214 216 220 228 225 205 182 168 158 148 146 165 168 166 165 169 170 168 159 154 156 161 165 167 168 171 176 182 185 188 190 193 200 204 206 206 206 205 204 203 206 208 211
189 184 182 183 188 195 202 210 214 212 209 207 205 205 206 206 205 203 200 199 198 197 195 192 186 182 187 193 195 197 203 210 212 211 211 213 217 219 219 214 207 205 209 212 215 220 226 212 187 172 161 151 141 139 154 162 165 168 170 172 172 168 161 159 163 172 176 178 180 182 185 190 194 197 197 199 202 205 208 211 212 213 215 220 219 216
174 168 163 160 162 168 175 181 187 192 196 198 199 200 200 200 199 196 194 194 194 192 187 180 176 180 188 191 194 198 204 212 216 216 216 214 212 212 213 210 204 203 207 210 215 221 224 201 183 171 164 159 154 150 153 159 164 166 165 164 161 160 159 159 164 177 185 189 190 190 191 197 203 208 210 209 209 208 211 213 215 215 217 223 223 219
166 161 156 153 153 156 160 162 166 172 180 187 192 194 195 195 192 187 185 189 191 190 183 175 175 184 191 193 198 203 209 213 216 219 220 218 213 209 208 204 201 200 204 208 213 219 217 197 185 178 173 174 173 171 169 169 169 167 163 160 158 158 161 165 172 180 187 190 191 191 189 192 199 209 218 221 220 221 222 223 220 219 222 227 227 225
160 156 153 151 151 152 154 154 155 160 169 178 185 190 193 194 190 185 185 190 193 191 185 182 181 185 191 194 201 209 214 216 218 219 220 215 212 208 205 201 198 197 200 205 212 218 215 200 191 186 184 186 189 190 188 184 180 176 172 170 169 171 178 185 191 194 196 197 197 195 192 190 191 198 206 212 217 222 227 229 228 229 234 236 235 232
157 154 152 149 148 149 149 149 151 157 166 173 180 187 192 197 197 196 195 193 191 189 188 189 189 189 190 196 205 214 220 221 221 220 217 209 206 207 204 198 195 196 197 200 210 220 220 209 200 195 193 195 198 201 202 201 200 198 200 205 213 224 233 235 232 224 218 213 209 206 202 200 200 202 205 206 209 216 222 222 225 235 242 247 247 244
160 157 154 150 148 148 148 148 151 157 165 171 175 178 184 193 203 207 201 195 191 190 191 194 195 193 188 190 200 216 225 224 222 218 213 206 202 203 202 195 194 195 195 190 190 206 219 215 209 203 201 202 205 208 212 215 217 221 227 235 246 256 266 272 270 258 242 231 224 219 216 214 214 215 216 215 216 221 226 223 227 239 250 258 261 261
164 161 157 154 154 153 152 152 154 159 164 168 169 171 175 182 190 195 194 193 193 195 197 199 200 199 194 182 174 206 225 221 217 212 209 203 201 203 200 193 192 195 195 187 172 156 198 212 211 209 207 209 211 215 218 223 227 232 238 245 253 262 270 279 282 275 258 244 235 230 228 227 228 230 232 231 230 231 233 230 233 245 257 263 270 275
165 163 159 157 157 157 157 158 159 162 164 166 168 170 174 178 181 182 182 186 192 198 202 203 205 206 206 198 195 202 215 214 208 204 202 198 199 201 200 194 192 194 198 197 190 169 151 169 199 207 209 212 216 219 223 227 232 237 242 248 256 264 271 279 281 275 261 248 240 237 236 237 239 241 242 243 240 235 230 225 230 244 256 264 270 278
160 158 156 155 156 157 159 160 162 163 164 167 170 174 178 181 183 183 182 185 191 197 201 204 206 208 211 211 211 213 224 215 203 199 198 195 194 196 199 197 194 195 199 203 206 208 190 158 178 199 208 213 217 221 225 229 233 239 244 251 259 266 273 277 276 270 258 247 242 240 240 241 244 246 248 247 243 234 225 217 219 235 254 263 268 273
155 153 153 153 154 155 157 160 161 163 166 169 173 178 181 184 186 186 187 189 193 197 201 203 205 207 210 212 214 219 228 223 205 198 197 195 193 195 200 198 197 197 198 202 209 215 215 200 182 185 202 212 217 223 227 232 236 241 247 254 262 268 272 274 272 265 256 248 243 242 241 242 244 246 248 247 242 234 225 217 212 220 242 258 267 272
153 152 153 154 155 156 159 161 164 166 169 173 176 180 183 185 186 186 187 190 192 196 198 200 202 204 207 212 214 217 224 220 207 199 198 198 198 198 201 201 202 202 200 201 204 207 206 203 194 184 187 207 220 228 232 235 239 244 249 254 259 265 269 271 269 265 258 251 247 245 244 243 243 243 243 242 238 234 229 222 214 212 221 238 256 267
155 155 156 158 160 162 165 168 171 173 176 179 181 183 184 184 184 183 183 185 186 189 193 196 199 202 204 206 207 209 210 209 203 199 198 200 201 201 200 204 207 207 204 204 204 202 195 194 195 195 194 201 218 231 235 236 238 241 245 248 252 257 263 267 268 267 262 256 252 249 247 246 244 242 239 237 236 234 233 230 225 219 216 220 232 248
161 162 164 166 169 172 174 177 180 183 185 187 188 188 187 185 183 180 179 179 180 183 186 190 195 200 205 207 207 205 203 200 197 194 195 198 201 203 201 203 207 209 208 209 210 208 203 196 199 207 211 211 214 223 230 230 231 232 233 237 244 255 264 268 268 266 263 257 254 251 249 248 246 243 240 237 236 235 235 235 234 231 229 227 229 235
170 171 174 177 180 182 184 186 189 191 193 194 193 191 189 186 183 180 178 178 179 180 182 183 187 193 200 205 208 207 205 200 195 192 190 193 198 203 206 206 207 209 210 214 217 217 213 202 199 208 224 223 224 225 223 220 220 221 224 233 247 261 271 272 270 266 261 255 251 250 249 248 247 245 244 241 239 238 238 238 239 239 239 238 238 238
178 180 182 185 187 189 191 193 194 195 196 196 195 194 192 189 184 181 180 180 180 180 181 181 181 185 192 197 202 203 202 199 195 191 188 190 195 202 207 209 210 211 213 216 220 223 223 219 213 211 217 226 229 229 227 224 222 224 231 243 257 267 272 273 271 265 259 252 247 246 247 248 248 248 248 246 244 244 244 244 244 244 244 244 243 243
188 189 190 191 192 194 195 197 198 198 197 197 197 196 194 190 187 184 182 181 182 183 184 184 183 183 186 190 194 196 196 195 193 190 189 189 193 199 205 211 216 219 221 224 226 229 232 235 236 236 238 241 242 240 238 238 239 241 246 255 265 272 273 274 272 267 259 252 246 244 245 247 249 249 249 249 248 248 249 249 249 247 246 245 246 246
195 196 196 196 196 198 199 199 199 197 197 196 196 195 194 192 189 186 185 183 184 185 187 188 187 186 185 186 188 189 190 190 190 190 189 191 195 200 204 211 217 223 228 232 235 238 241 244 247 250 252 254 256 258 257 255 256 257 259 262 267 272 274 273 270 267 262 254 247 244 244 245 247 248 249 249 250 250 250 251 250 249 247 245 245 247
197 197 197 196 196 197 197 196 195 194 195 195 195 195 195 194 192 189 187 186 186 187 190 191 189 187 184 183 184 185 186 187 188 189 191 194 199 203 208 213 219 226 232 237 241 245 248 249 251 253 255 257 260 261 261 261 261 261 262 264 269 275 278 269 263 261 258 253 248 245 242 243 244 245 247 249 251 251 251 250 250 248 247 246 245 246
195 195 194 194 194 194 193 192 192 192 193 194 196 197 197 195 193 191 189 189 188 189 190 192 192 190 187 186 185 184 184 185 187 191 194 198 203 208 212 217 223 229 234 239 244 248 252 253 254 255 257 259 260 260 260 262 261 260 261 263 266 271 276 268 261 257 254 251 248 245 242 240 241 243 246 249 251 252 252 251 249 248 247 246 247 248
194 193 192 192 192 191 191 191 191 192 193 195 196 197 196 194 192 190 189 189 189 189 191 191 192 193 192 191 190 189 188 188 190 193 198 203 208 214 219 223 228 233 238 242 247 252 255 257 258 259 260 261 260 260 260 262 262 262 261 261 259 256 254 261 266 265 257 251 247 243 240 239 240 243 247 249 252 253 253 253 251 249 248 247 248 249
194 193 193 192 192 192 193 193 193 193 195 196 197 196 194 192 190 189 189 188 188 189 190 192 192 193 194 195 196 196 196 196 198 200 204 209 215 220 226 230 235 239 242 246 250 253 258 261 264 265 266 264 262 260 259 260 261 263 264 263 263 261 260 260 262 263 257 249 243 239 238 238 241 245 249 251 253 254 254 253 252 251 250 250 250 251
194 195 195 194 194 194 194 193 193 194 195 197 196 195 193 191 190 189 190 190 190 189 191 194 195 195 195 198 200 201 203 206 208 210 214 218 224 228 233 237 241 244 246 248 251 254 256 260 264 267 268 267 265 263 261 260 260 262 265 267 269 269 269 265 259 254 249 244 240 238 239 240 244 248 252 254 255 254 254 253 253 252 251 252 252 254
196 196 196 196 195 194 194 193 194 195 195 196 195 194 192 191 190 191 192 194 193 193 193 197 200 202 202 201 203 205 207 211 215 218 221 226 230 234 237 240 243 246 248 250 252 254 255 256 257 259 260 261 262 262 263 262 261 262 265 270 273 275 275 271 263 252 247 243 240 239 240 242 246 251 255 257 257 257 255 254 253 252 252 252 254 255
196 195 195 195 194 193 193 194 194 195 195 195 195 194 193 193 193 193 194 197 198 198 198 200 203 206 208 209 211 213 215 218 222 224 226 227 230 233 236 237 240 243 247 250 253 255 255 255 253 251 250 249 250 254 259 261 261 263 266 270 273 273 271 271 266 259 253 248 245 243 242 244 247 252 255 258 260 259 257 254 253 252 252 253 253 255
193 193 192 192 192 191 191 192 194 194 195 195 194 194 194 195 195 196 197 199 202 203 204 205 207 210 212 214 217 221 223 226 229 231 232 231 231 230 231 234 237 240 245 250 253 255 256 255 254 252 250 249 248 249 254 259 261 264 266 267 267 267 268 268 267 266 262 257 251 247 245 245 247 249 252 257 261 262 259 256 252 251 250 251 253 254
190 190 189 189 189 189 189 191 191 192 193 194 194 194 195 196 198 199 201 203 206 209 211 213 215 217 219 221 223 225 227 230 232 233 234 235 234 232 232 233 235 240 245 251 255 258 259 261 260 259 258 256 253 251 251 254 259 262 264 263 262 262 263 265 268 269 269 264 256 249 245 243 245 247 250 254 259 263 264 261 256 251 248 249 251 252
189 189 189 188 187 187 187 187 187 188 190 191 193 194 195 196 198 200 203 206 210 213 217 219 222 224 226 228 230 231 231 233 234 234 234 235 235 235 235 236 237 238 241 248 253 259 264 267 269 269 267 263 260 256 251 250 251 255 257 259 260 260 260 262 267 271 272 267 258 248 241 238 240 244 248 251 256 262 267 268 263 257 251 249 249 252
Height
823 824 824 824 825 826 826 826 827 828 829 830 830 831 832 833 834 835 835 836 836 837 837 838 839 840 840 841 841 841 841 842 842 842 842 842 842 842 842 843 843 843 843 843 843 843 843 843 843 843 843 843 843 843 844 844 844 844 844 845 845 845 846 846 846 846 846 846 846 846 846 846 846 846 846 846 846 847 847 847 847 847 847 847 847 847
822 823 823 824 825 825 826 826 827 827 828 829 830 831 831 832 833 834 835 835 836 836 837 837 838 839 840 840 841 841 841 842 842 842 842 842 842 842 842 842 843 843 843 843 843 843 842 842 842 842 842 842 843 843 843 843 843 843 844 844 844 845 845 845 845 845 845 845 845 845 845 845 846 846 846 846 846 846 846 846 847 847 847 847 847 847
821 822 823 824 824 825 825 826 826 827 828 828 829 830 831 832 832 833 834 834 835 836 836 837 838 838 839 840 841 841 841 842 842 842 842 842 842 842 842 842 843 843 843 843 843 842 842 842 842 842 842 842 842 842 842 842 842 843 843 843 843 844 844 844 844 844 844 844 844 845 845 845 845 846 846 846 846 846 846 846 846 846 846 846 847 847
821 821 822 823 824 824 825 825 826 826 827 828 829 830 830 831 832 832 833 834 834 835 836 836 837 838 839 840 841 841 841 841 841 841 842 842 842 842 842 842 843 843 843 843 842 842 842 842 842 842 842 842 842 842 842 842 842 842 842 842 843 843 843 843 843 843 844 844 844 844 844 845 845 845 845 846 846 846 846 846 846 846 846 846 846 846
820 820 821 821 823 823 824 824 825 826 827 828 829 829 830 831 831 832 832 833 833 834 835 836 836 837 838 839 840 841 841 841 841 841 842 842 842 842 842 842 842 842 842 842 842 842 842 842 842 842 842 842 841 841 841 841 841 841 841 842 842 842 842 842 843 843 843 843 844 844 844 844 845 845 845 845 845 846 846 846 846 846 846 846 846 846
819 819 820 821 822 822 823 824 825 826 826 827 828 829 829 830 831 831 831 832 833 833 834 835 836 837 838 839 840 841 841 841 841 841 841 842 842 842 842 842 842 842 842 842 842 842 842 842 842 842 842 841 841 841 841 841 841 841 841 841 841 841 842 842 842 842 843 843 843 843 844 844 844 844 844 845 845 845 845 845 846 846 846 846 846 846
818 819 819 820 821 821 822 823 824 825 826 826 827 828 829 829 830 831 831 831 832 833 833 834 835 836 837 838 839 840 840 840 841 841 841 841 841 841 841 842 842 842 842 842 842 842 842 842 841 841 841 841 841 841 841 841 841 841 841 841 841 841 841 841 842 842 842 842 843 843 843 843 844 844 844 844 844 844 845 845 845 845 846 846 846 846
817 818 818 819 819 820 821 822 823 824 825 825 826 827 828 829 830 830 831 831 832 832 833 834 835 836 837 838 838 839 839 839 839 840 840 841 841 841 841 841 842 842 842 842 842 841 841 841 841 841 841 841 841 841 841 841 841 841 841 841 841 841 841 841 841 841 842 842 842 842 843 843 843 843 843 844 844 844 844 844 845 845 845 845 846 846
815 816 817 818 818 819 821 821 822 823 824 824 825 826 827 828 829 830 831 831 832 832 833 833 834 835 836 837 837 837 838 838 839 839 840 840 840 841 841 841 841 841 841 841 841 841 841 841 841 841 841 841 841 841 841 841 841 841 841 841 841 841 841 841 841 841 841 842 842 842 842 842 843 843 843 843 843 843 844 844 844 845 845 845 845 846
814 815 816 817 818 818 819 820 821 822 823 824 825 825 826 827 828 829 830 831 831 832 832 833 833 834 835 836 836 837 837 838 838 839 839 840 840 841 841 841 841 841 841 841 841 841 841 841 841 841 841 841 841 840 840 840 840 840 841 841 841 841 841 841 841 841 841 841 841 842 842 842 842 842 843 843 843 843 843 843 844 844 844 845 845 846
814 814 815 816 817 817 818 819 820 821 822 823 824 825 826 826 827 828 829 830 831 831 832 832 833 833 834 835 836 836 837 837 838 839 839 840 840 840 840 841 841 841 841 841 841 841 841 841 841 841 841 840 840 840 840 840 840 840 840 840 841 841 841 841 841 841 841 841 841 841 842 842 842 842 842 842 843 843 843 843 843 844 844 845 845 845
813 814 815 815 816 817 817 818 819 820 821 822 824 825 825 826 826 826 828 828 829 830 831 832 832 833 833 834 835 836 836 837 838 838 839 839 840 840 840 840 840 841 841 841 840 840 840 840 840 840 840 840 840 840 840 840 840 840 840 840 840 840 840 841 841 841 841 841 841 841 842 842 842 842 842 842 843 843 843 843 843 843 844 844 845 845
811 812 813 814 815 816 816 817 819 820 821 821 822 823 823 824 824 825 826 827 828 829 830 831 832 832 833 834 835 835 836 837 837 838 838 839 839 839 840 840 840 840 840 840 840 840 840 840 839 839 839 840 839 839 840 840 840 840 840 840 840 840 840 840 840 841 841 841 841 841 841 842 842 842 842 842 842 843 843 843 843 843 843 844 844 845
811 812 813 814 815 815 816 816 817 818 819 819 820 820 820 821 823 824 825 826 827 828 829 830 831 832 833 834 834 835 836 836 837 837 838 838 838 839 839 839 839 839 839 839 839 839 839 839 839 839 839 839 839 839 839 839 839 840 840 840 840 840 840 840 840 840 840 841 841 841 841 841 842 842 842 842 842 842 843 843 843 843 843 844 844 844
810 811 812 813 813 814 814 815 815 816 816 817 817 818 819 821 822 824 825 826 827 828 829 830 831 832 832 833 834 834 835 836 836 837 837 838 838 838 838 838 839 839 839 839 839 838 838 838 838 838 839 839 839 839 839 839 839 839 840 840 840 840 840 840 840 840 840 840 841 841 841 841 842 842 842 842 842 842 842 843 843 843 843 843 844 844
808 809 810 811 811 812 812 813 814 815 815 816 816 817 819 820 822 823 824 825 826 827 829 830 831 832 832 832 833 834 834 835 836 836 837 837 837 838 838 838 838 838 838 838 838 838 838 838 838 838 838 838 838 839 839 839 839 839 839 839 839 839 839 839 840 840 840 840 840 841 841 841 841 842 842 842 842 842 842 842 843 843 843 843 843 843
806 807 808 808 809 810 811 811 812 813 814 814 815 816 818 819 820 822 823 824 825 826 827 829 830 831 831 832 832 833 833 834 835 836 836 836 837 837 837 837 837 837 837 837 837 837 837 837 838 838 838 838 838 838 839 839 839 839 839 839 839 839 839 839 839 840 840 840 840 841 841 841 841 841 842 842 842 842 842 842 842 843 843 843 843 843
805 806 806 807 808 808 809 810 811 812 812 813 815 816 817 818 819 821 821 822 824 825 826 827 827 828 829 830 831 831 832 833 834 835 835 836 836 836 836 837 837 837 837 837 837 837 837 837 837 837 837 838 838 838 838 839 839 839 839 839 839 839 839 839 839 840 840 840 840 841 841 841 841 841 841 842 842 842 842 842 842 842 842 843 843 843
804 804 805 806 806 807 808 809 810 810 811 812 814 815 816 818 819 820 820 821 822 824 825 826 826 826 827 828 829 830 831 832 833 834 835 835 836 836 836 836 836 836 836 836 836 836 837 837 837 837 837 837 837 838 838 838 839 839 839 839 839 839 839 839 839 839 840 840 840 841 841 841 841 841 841 841 842 842 842 842 842 842 842 842 842 843
803 803 804 804 805 806 807 808 808 809 810 811 812 814 815 816 818 819 820 821 821 822 823 824 825 826 827 827 828 829 831 831 832 833 834 834 835 835 835 836 836 836 836 836 836 836 836 836 836 836 837 837 837 837 838 838 838 838 838 838 838 838 838 839 839 839 840 840 840 840 840 841 841 841 841 841 841 842 842 842 842 842 842 842 842 842
802 802 803 803 804 805 806 806 807 808 809 810 812 813 814 816 817 818 819 820 821 822 823 824 825 826 826 827 828 829 830 831 831 832 833 834 834 834 835 835 835 835 835 836 836 836 836 836 836 836 836 837 837 837 838 838 838 838 838 838 838 838 838 839 839 839 840 840 840 840 840 840 840 841 841 841 841 841 841 842 842 842 842 842 842 842
802 802 802 803 803 804 805 805 806 807 808 809 811 812 813 814 815 816 817 818 820 821 822 824 825 825 826 826 827 828 829 830 831 831 832 833 833 833 834 834 834 835 835 835 835 835 836 836 836 836 836 836 836 837 837 838 838 838 838 838 838 838 838 839 839 839 839 840 840 840 840 840 840 840 840 841 841 841 841 841 842 842 842 842 842 842
801 801 802 802 803 803 804 805 806 806 807 808 810 811 812 813 814 815 816 817 819 820 821 823 824 825 826 826 827 828 829 830 830 831 831 832 832 833 833 833 834 834 834 835 835 835 835 835 836 836 836 836 836 837 837 838 838 838 838 838 838 838 839 839 839 839 839 839 840 840 840 840 840 840 840 840 840 841 841 841 841 841 841 842 842 842
801 801 801 801 802 803 804 804 805 806 806 808 809 810 811 812 813 814 816 817 818 820 821 822 823 824 825 826 827 827 828 829 830 830 831 831 831 832 832 833 833 833 834 834 834 835 835 835 835 836 836 836 836 837 837 838 838 838 838 838 838 838 839 839 839 839 839 839 839 840 840 840 840 840 840 840 840 840 841 841 841 841 841 841 841 841
800 800 800 801 801 802 803 804 804 805 806 807 808 810 811 812 813 815 816 817 818 819 821 822 823 824 825 826 826 827 827 828 829 830 830 831 831 831 831 832 832 833 833 834 834 834 834 835 835 835 836 836 836 837 837 838 838 838 838 838 838 838 838 839 839 839 839 839 839 839 839 839 839 840 840 840 840 840 840 840 840 841 841 841 841 841
800 800 800 801 801 802 803 803 804 805 806 807 808 809 811 812 813 814 816 817 818 819 820 821 822 823 824 825 825 826 827 827 828 829 829 830 830 830 831 831 832 832 833 833 834 834 834 834 835 835 835 836 836 836 837 837 837 838 838 838 838 838 838 838 839 839 839 839 839 839 839 839 839 839 839 839 839 840 840 840 840 840 840 840 841 841
800 800 800 801 801 802 802 803 804 805 806 807 808 809 810 811 813 814 815 816 817 818 819 821 821 822 823 824 825 825 826 826 827 828 828 829 829 830 830 831 831 832 832 833 833 833 834 834 834 835 835 835 835 836 836 836 836 837 837 838 838 838 838 838 838 838 839 839 839 839 839 839 839 839 839 839 839 839 839 839 839 840 840 840 840 840
801 801 801 801 801 802 802 803 804 805 806 807 808 810 810 811 812 813 814 815 816 817 818 819 821 821 823 823 824 824 825 826 826 827 828 828 829 829 829 830 831 831 832 832 833 833 833 833 834 834 835 835 835 835 835 836 836 836 837 837 837 837 838 838 838 838 838 838 838 838 838 838 838 839 839 839 839 839 839 839 839 839 839 839 839 839
801 801 801 801 802 802 803 804 804 805 806 807 809 810 811 811 812 813 813 814 816 816 817 818 819 821 821 822 823 824 824 825 825 826 827 827 828 828 828 829 830 831 831 832 832 832 833 833 833 834 834 834 835 835 835 836 836 836 836 836 837 837 837 837 837 837 837 837 837 838 838 838 838 838 838 838 838 839 839 839 839 839 839 839 839 839
801 801 801 801 802 803 803 804 805 806 807 808 809 810 811 811 812 813 813 814 815 816 817 818 819 820 821 822 823 823 823 823 824 825 826 826 826 827 828 828 829 830 830 831 832 832 832 832 832 833 833 834 834 834 835 835 835 836 836 836 836 836 836 836 837 837 837 837 837 837 837 837 837 837 837 838 838 838 838 838 838 839 838 838 838 838
801 801 801 801 802 803 803 804 805 806 807 808 809 810 811 811 812 813 814 814 815 815 816 817 818 819 820 821 822 822 822 822 822 824 824 825 826 826 827 827 828 829 830 830 831 831 831 832 832 832 832 833 833 834 834 834 835 835 835 836 836 836 836 836 836 836 836 836 836 836 836 836 836 836 837 837 837 837 837 838 838 838 837 837 837 837
801 801 801 802 802 803 804 804 805 806 807 808 809 810 811 811 812 813 813 814 815 815 816 816 817 818 819 820 820 821 821 821 821 822 823 824 825 826 826 827 827 828 829 829 830 830 830 831 831 831 832 832 832 833 833 834 834 834 835 835 835 835 835 835 835 835 835 835 835 835 836 836 836 836 836 836 836 836 837 837 837 837 837 837 837 837
801 801 802 802 803 803 804 805 806 806 807 808 809 810 811 811 812 812 813 814 814 815 816 816 817 817 818 819 819 820 820 820 821 821 822 823 824 825 825 826 827 827 828 829 829 829 830 830 830 831 831 831 832 832 833 833 833 833 834 834 834 834 834 834 834 834 834 834 834 835 835 835 835 835 835 835 835 836 836 836 836 837 836 836 836 836
801 802 802 803 803 804 805 805 806 807 808 809 809 810 811 811 811 812 813 813 814 814 815 816 816 817 817 818 819 819 820 820 821 821 822 823 823 824 825 825 826 827 828 828 829 829 830 830 830 830 831 831 831 831 832 832 832 832 833 833 833 833 833 833 833 833 833 833 833 834 834 834 834 834 834 834 835 835 835 835 836 836 836 836 836 836
801 802 803 803 804 804 805 806 806 807 808 809 809 810 811 811 811 812 812 813 813 814 814 815 816 816 817 817 818 819 819 820 820 821 821 822 823 823 824 825 826 826 827 828 828 829 829 829 830 830 830 831 831 831 831 831 831 832 832 832 832 832 832 832 832 832 832 832 832 833 833 833 833 833 833 833 834 834 834 834 834 835 835 835 835 835
802 802 803 803 804 804 805 806 806 807 808 809 809 810 810 811 811 811 812 812 813 813 814 814 815 816 816 816 817 818 819 819 820 820 821 822 822 823 824 824 825 826 826 827 827 828 828 829 829 829 830 830 830 830 830 830 831 831 831 831 831 831 831 831 831 831 831 831 831 832 832 832 832 832 832 832 833 833 833 833 833 834 834 834 834 834
802 802 803 803 804 805 805 806 806 807 808 809 809 810 810 811 811 811 811 812 812 813 813 814 815 815 816 816 816 817 818 818 819 820 821 821 822 823 823 824 825 825 826 826 827 827 828 828 829 829 829 829 829 829 829 829 830 830 830 830 830 830 830 830 830 830 831 831 831 831 831 831 831 831 831 831 832 832 832 832 832 833 833 833 833 833
801 802 803 803 804 805 805 806 806 807 808 808 809 809 810 810 810 811 811 811 812 812 813 814 814 815 815 816 816 817 817 818 819 819 820 821 821 822 823 824 824 825 826 826 826 827 827 828 828 829 829 829 829 828 828 829 829 829 829 829 829 829 829 829 829 829 830 830 830 830 830 830 830 831 831 831 831 831 831 831 832 832 832 832 832 832
801 802 803 803 804 805 805 806 806 807 808 808 809 809 809 810 810 810 811 811 812 812 813 813 814 814 815 815 816 816 817 818 818 819 820 821 821 822 822 823 824 825 825 826 826 826 827 827 828 828 828 828 828 828 828 828 828 829 829 829 829 829 829 828 828 828 829 829 829 829 829 829 829 830 830 830 830 831 831 831 831 831 831 831 831 832
801 802 803 803 804 805 805 806 806 807 807 808 808 808 809 809 810 810 810 811 811 812 812 813 814 814 815 815 816 816 817 817 818 819 819 820 821 821 822 823 824 824 825 825 826 826 826 827 827 827 828 828 828 828 828 828 828 828 828 829 828 828 828 828 828 828 828 828 828 828 828 828 828 829 829 829 829 830 830 830 830 830 830 831 831 831
801 802 802 803 804 804 805 805 806 806 807 807 807 808 808 809 809 809 810 811 811 811 812 813 813 814 815 815 816 816 816 817 818 818 819 820 820 821 822 822 823 823 824 824 825 825 826 826 826 826 827 827 827 827 827 827 827 828 828 828 828 827 827 827 827 827 827 827 827 827 827 827 828 828 828 828 828 829 829 829 829 829 830 830 830 830
801 801 802 802 803 804 804 805 805 806 806 806 807 807 807 808 808 809 809 810 811 811 812 812 813 814 814 815 816 816 816 817 817 818 818 819 820 820 821 822 822 823 823 824 824 824 825 825 826 826 826 826 826 826 826 826 826 826 826 826 826 826 826 826 826 826 826 826 826 826 826 827 827 827 827 827 827 828 828 828 828 828 829 829 829 829
800 801 801 802 802 803 803 804 804 805 805 806 806 806 807 807 808 808 809 809 810 811 811 812 813 813 814 815 815 816 816 816 817 817 818 819 819 820 821 821 821 822 822 823 823 824 824 824 824 825 825 825 825 825 825 825 825 825 825 825 826 826 826 825 825 825 825 825 825 826 826 826 826 826 826 826 826 827 827 827 827 827 828 828 828 828
800 800 801 801 802 802 803 803 804 804 805 805 806 806 806 807 807 808 808 809 810 811 811 812 812 813 814 814 815 815 816 816 816 817 817 818 819 819 820 821 821 821 822 822 823 823 823 823 823 824 824 824 824 824 824 823 823 823 823 824 824 825 824 824 824 824 824 824 825 825 825 825 825 825 826 826 826 826 826 826 826 827 827 827 827 827
799 799 800 800 801 801 802 802 803 803 804 804 805 805 806 806 806 807 808 808 809 810 811 811 812 813 813 814 814 815 815 816 816 816 817 817 818 819 819 820 820 821 821 821 822 822 822 822 823 823 823 823 823 823 823 823 822 822 822 822 823 823 823 823 823 824 824 824 824 824 824 825 825 825 825 825 825 825 825 826 826 826 826 826 826 826
798 798 799 799 800 800 801 801 802 802 803 804 804 805 805 806 806 807 807 808 809 809 810 811 811 812 813 813 814 814 815 815 816 816 816 817 817 818 818 819 819 820 820 821 821 821 821 822 822 822 822 822 822 822 822 822 822 822 822 822 822 822 822 822 822 823 823 823 823 823 823 824 824 824 824 824 824 824 824 824 824 825 825 825 825 825
797 797 798 798 799 799 800 801 801 802 802 803 803 804 804 805 806 806 807 807 808 809 810 810 811 811 812 812 813 813 814 814 815 815 816 816 817 817 818 818 819 819 819 820 820 820 820 821 821 821 821 821 821 821 821 821 821 821 821 821 821 821 821 821 821 821 822 822 822 822 822 822 823 823 822 822 822 823 823 823 823 823 823 824 824 824
796 796 796 797 798 798 799 800 800 801 801 802 802 803 804 804 805 806 806 807 808 808 809 810 810 811 811 812 812 812 813 813 814 815 815 816 816 816 817 817 818 818 818 819 819 819 819 819 820 820 820 820 820 820 820 820 820 820 820 820 820 820 820 820 820 820 821 821 821 821 821 821 821 821 821 821 821 821 821 822 822 822 822 822 822 822
795 795 796 796 797 797 798 799 799 800 801 801 801 802 803 803 804 805 806 806 807 808 808 809 810 810 811 811 811 812 812 813 813 814 814 815 815 816 816 817 817 817 817 818 818 818 818 818 818 818 818 818 818 818 818 818 818 818 819 819 819 819 818 818 819 819 819 820 820 820 820 820 820 820 820 820 820 820 820 820 821 821 821 821 821 821
794 794 795 796 796 796 797 798 798 799 800 800 801 801 802 803 803 804 805 806 806 807 807 808 809 809 810 810 811 811 811 812 812 813 813 814 814 815 816 816 816 817 817 817 817 817 817 817 816 816 816 816 816 816 817 817 817 817 817 817 817 817 817 817 817 818 818 818 818 818 818 818 818 819 819 819 819 818 819 819 820 820 821 821 821 821
793 793 794 795 795 796 796 797 797 798 799 799 800 801 801 802 803 803 804 805 806 806 807 807 808 808 809 809 810 810 810 811 811 812 812 813 813 814 815 815 816 816 816 817 817 817 817 817 816 815 814 814 814 815 815 816 816 816 816 816 816 816 816 816 816 817 817 817 817 817 817 817 817 817 818 818 818 818 818 818 818 819 819 820 820 820